Location: Rancho Del Sol Observatory
(38.7214°N, 120.6350°W)
Time: 18:13:34
(UTC-08:00)

Courier 1B - Pass Details

Date: 17 January 2020
Orbit: 962 x 1209 km, 28.3° (Epoch: 25 February)

Event Time Altitude Azimuth Distance (km) Brightness Sun altitude
Exits shadow 04:00:00 13° 169° (S) 2,894 10.0 -38.4°
Maximum altitude 04:02:09 14° 152° (SSE) 2,802 10.1 -37.9°
Drops below altitude 10° 04:05:55 10° 122° (ESE) 3,132 10.7 -37.2°
Sets 04:10:25 0° 100° (E) 4,107 11.7 -36.3°
